Hourly Weather Osovcy

Today, 2 July, Thursday

Time Temperature Precipitation Wind Pressure Humidity
00:00 +14°C° 0 mm 2 mps 743 mmHg 92%
01:00 +14°C° 0 mm 2 mps 743 mmHg 92%
02:00 +15°C° 0 mm 1 mps 743 mmHg 92%
03:00 +15°C° 0 mm 2 mps 743 mmHg 91%
04:00 +16°C° 0 mm 2 mps 742 mmHg 90%
05:00 +16°C° 0 mm 2 mps 742 mmHg 89%
06:00 +17°C° 0.1 mm 2 mps 743 mmHg 87%
07:00 +18°C° 0.1 mm 2 mps 743 mmHg 85%
08:00 +19°C° 0 mm 2 mps 743 mmHg 84%
09:00 +19°C° 1.3 mm 2 mps 743 mmHg 87%
10:00 +19°C° 1.3 mm 2 mps 742 mmHg 89%
11:00 +20°C° 1.3 mm 1 mps 742 mmHg 91%
12:00 +20°C° 1.1 mm 1 mps 742 mmHg 92%
13:00 +20°C° 1.1 mm 1 mps 742 mmHg 92%
14:00 +21°C° 1.1 mm 1 mps 742 mmHg 92%
15:00 +22°C° 0.2 mm 1 mps 742 mmHg 84%
16:00 +24°C° 0.2 mm 2 mps 742 mmHg 76%
17:00 +25°C° 0.2 mm 2 mps 742 mmHg 67%
18:00 +24°C° 0.1 mm 2 mps 742 mmHg 74%
19:00 +23°C° 0.1 mm 2 mps 742 mmHg 81%
20:00 +21°C° 0.1 mm 2 mps 742 mmHg 88%
21:00 +20°C° 0.1 mm 2 mps 742 mmHg 91%
22:00 +19°C° 0.1 mm 2 mps 742 mmHg 94%
23:00 +18°C° 0.1 mm 2 mps 742 mmHg 96%

Tomorrow, 3 July, Friday

Time Temperature Precipitation Wind Pressure Humidity
00:00 +17°C° 0 mm 2 mps 743 mmHg 97%
01:00 +17°C° 0 mm 2 mps 743 mmHg 97%
02:00 +16°C° 0 mm 2 mps 744 mmHg 97%
03:00 +16°C° 0 mm 2 mps 744 mmHg 97%
04:00 +15°C° 0 mm 1 mps 744 mmHg 97%
05:00 +15°C° 0 mm 1 mps 744 mmHg 96%
06:00 +16°C° 0 mm 1 mps 744 mmHg 89%
07:00 +19°C° 0 mm 1 mps 745 mmHg 82%
08:00 +20°C° 0 mm 1 mps 745 mmHg 75%
09:00 +22°C° 0 mm 1 mps 745 mmHg 66%
10:00 +23°C° 0 mm 1 mps 745 mmHg 57%
11:00 +25°C° 0 mm 2 mps 746 mmHg 48%
12:00 +25°C° 0 mm 2 mps 745 mmHg 46%
13:00 +26°C° 0 mm 2 mps 745 mmHg 45%
14:00 +26°C° 0 mm 2 mps 745 mmHg 43%
15:00 +26°C° 0 mm 2 mps 745 mmHg 47%
16:00 +26°C° 0 mm 2 mps 744 mmHg 51%
17:00 +25°C° 0 mm 2 mps 744 mmHg 56%
18:00 +24°C° 0.3 mm 2 mps 744 mmHg 67%
19:00 +21°C° 0.3 mm 2 mps 744 mmHg 78%
20:00 +19°C° 0.3 mm 2 mps 744 mmHg 90%
21:00 +20°C° 0.2 mm 1 mps 744 mmHg 92%
22:00 +19°C° 0.2 mm 1 mps 744 mmHg 94%
23:00 +19°C° 0.2 mm 1 mps 744 mmHg 97%

Day after tomorrow, 4 July, Saturday

Time Temperature Precipitation Wind Pressure Humidity
00:00 +19°C° 0 mm 1 mps 744 mmHg 97%
01:00 +18°C° 0 mm 1 mps 744 mmHg 97%
02:00 +18°C° 0 mm 1 mps 744 mmHg 97%
03:00 +18°C° 0 mm 1 mps 744 mmHg 97%
04:00 +18°C° 0 mm 1 mps 744 mmHg 97%
05:00 +18°C° 0 mm 1 mps 744 mmHg 97%
06:00 +19°C° 0 mm 1 mps 745 mmHg 92%
07:00 +19°C° 0 mm 2 mps 745 mmHg 87%
08:00 +20°C° 0 mm 3 mps 745 mmHg 82%
09:00 +21°C° 0 mm 3 mps 746 mmHg 75%
10:00 +22°C° 0 mm 3 mps 746 mmHg 68%
11:00 +24°C° 0 mm 3 mps 746 mmHg 61%
12:00 +25°C° 0 mm 3 mps 746 mmHg 55%
13:00 +25°C° 0 mm 4 mps 746 mmHg 49%
14:00 +26°C° 0 mm 4 mps 746 mmHg 43%
15:00 +25°C° 0 mm 4 mps 746 mmHg 45%
16:00 +25°C° 0 mm 4 mps 746 mmHg 48%
17:00 +23°C° 0 mm 4 mps 746 mmHg 50%
18:00 +22°C° 0 mm 3 mps 746 mmHg 59%
19:00 +20°C° 0 mm 2 mps 746 mmHg 67%
20:00 +19°C° 0 mm 2 mps 746 mmHg 76%
21:00 +18°C° 0 mm 2 mps 746 mmHg 79%
22:00 +17°C° 0 mm 2 mps 746 mmHg 82%
23:00 +16°C° 0 mm 2 mps 747 mmHg 85%

5 July, Sunday

Time Temperature Precipitation Wind Pressure Humidity
00:00 +16°C° 0 mm 2 mps 747 mmHg 88%
01:00 +16°C° 0 mm 2 mps 747 mmHg 91%
02:00 +15°C° 0 mm 2 mps 747 mmHg 93%
03:00 +15°C° 0 mm 2 mps 747 mmHg 93%
04:00 +16°C° 0 mm 2 mps 747 mmHg 92%
05:00 +16°C° 0 mm 1 mps 747 mmHg 91%
06:00 +18°C° 0 mm 2 mps 746 mmHg 83%
07:00 +20°C° 0 mm 2 mps 746 mmHg 75%
08:00 +23°C° 0 mm 2 mps 746 mmHg 67%
09:00 +24°C° 0.1 mm 3 mps 746 mmHg 65%
10:00 +25°C° 0.1 mm 3 mps 746 mmHg 63%
11:00 +26°C° 0.1 mm 4 mps 746 mmHg 60%
12:00 +26°C° 0.4 mm 4 mps 745 mmHg 62%
13:00 +26°C° 0.4 mm 4 mps 745 mmHg 63%
14:00 +26°C° 0.4 mm 4 mps 744 mmHg 65%
15:00 +25°C° 0.6 mm 4 mps 744 mmHg 69%
16:00 +25°C° 0.6 mm 4 mps 744 mmHg 74%
17:00 +25°C° 0.6 mm 3 mps 744 mmHg 79%
18:00 +22°C° 0.5 mm 3 mps 743 mmHg 83%
19:00 +21°C° 0.5 mm 3 mps 743 mmHg 87%
20:00 +20°C° 0.5 mm 3 mps 743 mmHg 92%
21:00 +19°C° 0.1 mm 3 mps 743 mmHg 93%
22:00 +19°C° 0.1 mm 3 mps 743 mmHg 95%
23:00 +18°C° 0.1 mm 3 mps 743 mmHg 96%

6 July, Monday

Time Temperature Precipitation Wind Pressure Humidity
00:00 +18°C° 0 mm 3 mps 743 mmHg 96%
01:00 +18°C° 0 mm 3 mps 742 mmHg 97%
02:00 +17°C° 0 mm 3 mps 742 mmHg 97%
03:00 +17°C° 0 mm 3 mps 742 mmHg 97%
04:00 +17°C° 0 mm 4 mps 741 mmHg 97%
05:00 +17°C° 0 mm 4 mps 741 mmHg 96%
06:00 +19°C° 0 mm 4 mps 741 mmHg 91%
07:00 +20°C° 0 mm 5 mps 741 mmHg 85%
08:00 +21°C° 0 mm 5 mps 741 mmHg 80%
09:00 +21°C° 0.3 mm 5 mps 741 mmHg 82%
10:00 +21°C° 0.3 mm 5 mps 740 mmHg 83%
11:00 +21°C° 0.3 mm 5 mps 740 mmHg 85%
12:00 +22°C° 0.2 mm 5 mps 740 mmHg 80%
13:00 +23°C° 0.2 mm 6 mps 740 mmHg 75%
14:00 +24°C° 0.2 mm 6 mps 740 mmHg 70%
15:00 +24°C° 0 mm 6 mps 741 mmHg 66%
16:00 +24°C° 0 mm 6 mps 741 mmHg 62%
17:00 +25°C° 0 mm 5 mps 741 mmHg 59%
18:00 +22°C° 0 mm 4 mps 741 mmHg 63%
19:00 +21°C° 0 mm 3 mps 742 mmHg 67%
20:00 +19°C° 0 mm 2 mps 742 mmHg 71%
21:00 +18°C° 0 mm 2 mps 742 mmHg 72%
22:00 +18°C° 0 mm 2 mps 742 mmHg 74%
23:00 +18°C° 0 mm 1 mps 742 mmHg 76%

7 July, Tuesday

Time Temperature Precipitation Wind Pressure Humidity
00:00 +18°C° 0 mm 1 mps 742 mmHg 77%
01:00 +17°C° 0 mm 2 mps 742 mmHg 79%
02:00 +17°C° 0 mm 2 mps 742 mmHg 80%
03:00 +17°C° 0.1 mm 2 mps 742 mmHg 84%
04:00 +17°C° 0.1 mm 3 mps 742 mmHg 87%
05:00 +18°C° 0.1 mm 3 mps 742 mmHg 90%
06:00 +18°C° 0 mm 3 mps 743 mmHg 82%
07:00 +19°C° 0 mm 4 mps 743 mmHg 74%
08:00 +19°C° 0 mm 4 mps 743 mmHg 66%
09:00 +20°C° 0 mm 4 mps 744 mmHg 60%
10:00 +21°C° 0 mm 4 mps 744 mmHg 54%
11:00 +22°C° 0 mm 4 mps 745 mmHg 48%
12:00 +22°C° 0 mm 4 mps 744 mmHg 47%
13:00 +22°C° 0 mm 4 mps 744 mmHg 47%
14:00 +23°C° 0 mm 4 mps 744 mmHg 46%
15:00 +22°C° 0 mm 4 mps 744 mmHg 48%
16:00 +22°C° 0 mm 4 mps 744 mmHg 50%
17:00 +21°C° 0 mm 3 mps 744 mmHg 52%
18:00 +20°C° 0 mm 3 mps 745 mmHg 60%
19:00 +19°C° 0 mm 3 mps 745 mmHg 68%
20:00 +17°C° 0 mm 2 mps 745 mmHg 76%
21:00 +16°C° 0 mm 2 mps 745 mmHg 80%
22:00 +15°C° 0 mm 2 mps 745 mmHg 85%
23:00 +14°C° 0 mm 2 mps 746 mmHg 89%
Show more